JE0GNV-13 Weather Reports


Display with metric or nautical units.
time (UTC)temp
F
wind
direction
speed
MPH
gust
MPH
rain 1hr
in
rain 24hr
in
rain mn
in
humidity
%
barometer
mb
20260504151001 46 298 0.0 0.0 0.00 1.00 0.00 70 1010.1
20260504141001 48 302 0.0 0.0 0.00 1.15 1.02 60 1009.2
20260504082000 57 102 0.0 0.0 0.00 1.74 1.02 52 1003.1
20260504081000 58 286 0.0 0.0 0.00 1.74 1.02 51 1003.0
20260504050001 66 250 0.0 0.0 0.00 1.74 1.02 50 999.6
20260504045002 66 193 0.0 0.0 0.00 1.74 1.02 47 999.4
20260504044002 67 230 0.0 0.0 0.00 1.74 1.02 42 999.4
20260504043001 69 127 0.0 0.0 0.00 1.74 1.02 42 999.2
20260504042000 70 224 0.0 0.0 0.00 1.74 1.02 40 999.6
20260504041002 69 251 0.0 0.0 0.00 1.74 1.02 40 999.7
20260504040001 69 152 0.0 0.0 0.00 1.74 1.02 42 999.1
20260504035000 68 143 0.0 0.0 0.00 1.74 1.02 38 999.3
20260504034001 68 211 0.0 0.0 0.00 1.74 1.02 43 999.3
20260504033001 68 196 0.0 0.0 0.00 1.74 1.02 45 999.8
20260504032000 68 113 0.0 0.0 0.00 1.74 1.02 47 999.8
20260504031002 68 133 0.0 0.0 0.00 1.74 1.02 47 999.8
20260504030000 68 204 0.0 0.0 0.00 1.74 1.02 46 999.7
20260504025001 68 216 0.0 0.0 0.00 1.74 1.02 47 999.7
20260504024000 68 206 0.0 0.0 0.00 1.74 1.02 49 999.7
20260504023001 69 229 0.0 0.0 0.00 1.74 1.02 50 999.8
20260504022000 68 73 0.0 0.0 0.00 1.74 1.02 54 1000.0
20260504021001 67 123 0.0 0.0 0.00 1.74 1.02 54 1000.0
20260504020000 66 106 0.0 0.0 0.00 1.74 1.02 56 1000.4
20260504015001 65 121 0.0 0.0 0.00 1.74 1.02 62 1000.4
20260504014000 64 128 0.0 0.0 0.00 1.74 1.02 62 1000.4
20260504013001 63 144 0.0 0.0 0.00 1.74 1.02 65 1000.7
20260504012000 63 170 0.0 0.0 0.00 1.74 1.02 67 1000.7
20260504011001 63 134 0.0 0.0 0.00 1.74 1.02 70 1000.7
20260504010001 62 130 0.0 0.0 0.00 1.74 1.02 69 1000.6
20260504005001 62 208 0.0 0.0 0.00 1.74 1.02 71 1000.5
20260504004001 62 88 0.0 0.0 0.00 1.74 1.02 74 1000.5
20260504003000 61 191 0.0 0.0 0.00 1.74 1.02 77 1000.6
20260504002001 61 114 0.0 0.0 0.00 1.74 1.02 78 1000.6
20260504001000 61 238 0.0 0.0 0.00 1.74 1.02 79 1000.6
20260504000001 61 211 0.0 0.0 0.00 1.74 1.02 80 1000.6
20260503235001 61 201 0.0 0.0 0.00 1.74 1.02 81 1000.5
20260503234001 61 151 0.0 0.0 0.00 1.74 1.02 81 1000.5
20260503233001 61 150 0.0 0.0 0.00 1.74 1.02 85 1000.5
20260503232000 61 100 0.0 0.0 0.00 1.74 1.02 85 1000.3
20260503231000 61 176 0.0 0.0 0.00 1.74 1.02 86 1000.2
20260503230001 61 133 0.0 0.0 0.00 1.74 1.02 87 999.7
20260503225001 61 162 0.0 0.0 0.00 1.74 1.02 93 999.5
20260503224001 60 115 0.0 0.0 0.00 1.74 1.02 91 999.5
20260503223000 60 243 0.0 0.0 0.00 1.74 1.02 95 999.5
20260503222000 60 141 0.0 0.0 0.00 1.74 1.02 93 999.3
20260503221000 60 199 0.0 0.0 0.02 1.74 1.02 95 999.2
20260503220001 61 252 0.0 0.0 0.03 1.74 1.02 96 999.1
20260503215002 60 178 0.0 0.0 0.04 1.74 1.02 96 998.9
20260503214002 60 111 0.0 0.0 0.04 1.74 1.02 88 998.9
20260503213000 60 149 0.0 0.0 0.05 1.74 1.02 92 998.6
20260503212000 61 214 0.0 0.0 0.06 1.74 1.02 97 998.6
20260503211000 62 82 0.0 0.0 0.05 1.72 1.00 98 998.6
20260503210001 62 116 0.0 0.0 0.06 1.71 0.99 98 998.2
20260503205000 62 214 0.0 0.0 0.08 1.70 0.98 99 998.1
20260503204001 62 218 0.0 0.0 0.11 1.70 0.98 99 998.1
20260503203000 61 97 0.0 0.0 0.14 1.69 0.97 99 997.6
20260503202002 60 143 0.0 0.0 0.15 1.69 0.96 99 997.4
20260503201001 60 164 0.0 0.0 0.19 1.67 0.95 99 997.3
20260503200001 60 214 0.0 0.0 0.21 1.65 0.93 99 997.4
20260503195000 59 235 0.0 0.0 0.23 1.62 0.90 99 997.3
20260503194000 59 242 0.0 0.0 0.22 1.59 0.87 99 997.3
20260503193002 59 248 0.0 0.0 0.18 1.55 0.83 98 997.3
20260503192000 59 221 0.0 0.0 0.18 1.53 0.81 98 997.7
20260503191000 59 245 0.0 0.0 0.15 1.48 0.76 99 997.8
20260503190001 58 233 0.0 0.0 0.13 1.44 0.72 99 997.4
20260503185001 58 325 0.0 0.0 0.10 1.39 0.67 98 997.5
20260503184001 58 205 0.0 0.0 0.12 1.37 0.65 98 997.5
20260503183001 58 220 0.0 0.0 0.16 1.37 0.65 98 997.8
20260503182000 58 212 0.0 0.0 0.18 1.35 0.63 98 998.0
20260503181000 58 91 0.0 0.0 0.19 1.33 0.61 98 998.0
20260503180000 58 145 0.0 0.0 0.20 1.31 0.59 98 998.5
20260503175001 58 77 0.0 0.0 0.20 1.29 0.57 98 998.5
20260503174001 57 214 0.0 0.0 0.19 1.25 0.52 98 998.5
20260503173000 57 220 0.0 0.0 0.20 1.21 0.48 98 999.0
20260503172002 57 165 0.0 0.0 0.21 1.17 0.44 98 998.9
20260503171000 57 191 0.0 0.0 0.21 1.14 0.41 98 998.9